| time (UTC) | temp F | wind direction | speed knots | gust knots | rain 1hr in | rain 24hr in | rain mn in | humidity % | barometer mb |
| 20260509120506 | 57 | 240 | 7.8 | 15.6 | 0.00 | 0.18 | 0.00 | 90 | 1003.7 |
| 20260509120008 | 57 | 252 | 7.8 | 14.8 | 0.00 | 0.19 | 0.00 | 90 | 1003.7 |
| 20260509114508 | 58 | 246 | 10.4 | 17.4 | 0.00 | 0.20 | 0.19 | 88 | 1003.7 |
| 20260509114006 | 58 | 230 | 10.4 | 18.2 | 0.00 | 0.20 | 0.19 | 88 | 1003.8 |
| 20260509112506 | 58 | 234 | 7.8 | 18.2 | 0.00 | 0.21 | 0.19 | 90 | 1003.9 |
| 20260509111006 | 58 | 262 | 6.1 | 11.3 | 0.00 | 0.23 | 0.19 | 91 | 1003.6 |
| 20260509103506 | 57 | 254 | 10.4 | 13.0 | 0.00 | 0.41 | 0.19 | 94 | 1003.3 |
| 20260509102006 | 57 | 266 | 6.1 | 11.3 | 0.00 | 0.43 | 0.19 | 96 | 1003.2 |
| 20260509101505 | 57 | 249 | 6.1 | 7.8 | 0.00 | 0.43 | 0.19 | 96 | 1003.3 |
| 20260509100006 | 57 | 283 | 3.5 | 10.4 | 0.00 | 0.43 | 0.19 | 95 | 1003.3 |
| 20260509095008 | 57 | 301 | 2.6 | 7.0 | 0.00 | 0.43 | 0.19 | 95 | 1003.3 |
| 20260509094506 | 56 | 315 | 4.3 | 7.0 | 0.00 | 0.43 | 0.19 | 95 | 1003.0 |
| 20260509093508 | 56 | 318 | 4.3 | 7.0 | 0.00 | 0.43 | 0.19 | 95 | 1003.3 |
| 20260509091006 | 57 | 273 | 2.6 | 4.3 | 0.00 | 0.44 | 0.19 | 95 | 1003.4 |
| 20260509083506 | 57 | 318 | 7.8 | 8.7 | 0.00 | 0.46 | 0.19 | 94 | 1003.6 |
| 20260509083006 | 57 | 320 | 6.1 | 7.8 | 0.00 | 0.46 | 0.19 | 94 | 1003.6 |
| 20260509081506 | 58 | 318 | 7.8 | 8.7 | 0.00 | 0.46 | 0.19 | 94 | 1003.5 |
| 20260509080506 | 58 | 318 | 6.1 | 7.0 | 0.00 | 0.46 | 0.19 | 94 | 1003.1 |
| 20260509074005 | 58 | 262 | 6.1 | 15.6 | 0.00 | 0.48 | 0.19 | 95 | 1003.6 |
| 20260509072008 | 59 | 324 | 4.3 | 7.8 | 0.00 | 0.48 | 0.18 | 94 | 1003.3 |
| 20260509071506 | 59 | 322 | 5.2 | 7.8 | 0.00 | 0.48 | 0.18 | 95 | 1003.0 |
| 20260509071007 | 59 | 322 | 4.3 | 7.0 | 0.00 | 0.48 | 0.18 | 95 | 1003.2 |
| 20260509065506 | 59 | 290 | 4.3 | 7.0 | 0.00 | 0.49 | 0.18 | 94 | 1003.3 |
| 20260509065007 | 59 | 289 | 4.3 | 7.0 | 0.00 | 0.49 | 0.18 | 94 | 1003.1 |
| 20260509064506 | 59 | 282 | 3.5 | 5.2 | 0.00 | 0.49 | 0.18 | 94 | 1003.1 |
| 20260509063508 | 59 | 319 | 7.0 | 8.7 | 0.00 | 0.49 | 0.18 | 94 | 1003.1 |
| 20260509063017 | 59 | 320 | 7.0 | 8.7 | 0.00 | 0.49 | 0.18 | 94 | 1003.0 |
| 20260509061506 | 59 | 314 | 8.7 | 11.3 | 0.00 | 0.50 | 0.18 | 94 | 1002.9 |
| 20260509060507 | 59 | 316 | 7.8 | 14.8 | 0.00 | 0.50 | 0.18 | 94 | 1002.8 |
| 20260509060006 | 59 | 314 | 9.6 | 13.0 | 0.00 | 0.51 | 0.18 | 94 | 1002.8 |
| 20260509055506 | 59 | 313 | 9.6 | 11.3 | 0.01 | 0.51 | 0.18 | 94 | 1003.0 |
| 20260509054507 | 59 | 314 | 10.4 | 13.9 | 0.02 | 0.52 | 0.18 | 94 | 1002.9 |
| 20260509054006 | 59 | 313 | 7.8 | 12.2 | 0.02 | 0.52 | 0.18 | 93 | 1002.9 |
| 20260509053505 | 59 | 315 | 8.7 | 11.3 | 0.02 | 0.52 | 0.18 | 93 | 1002.9 |
| 20260509053007 | 59 | 316 | 6.1 | 10.4 | 0.03 | 0.52 | 0.18 | 93 | 1002.9 |
| 20260509052507 | 59 | 321 | 4.3 | 8.7 | 0.02 | 0.52 | 0.18 | 93 | 1003.0 |
| 20260509052005 | 59 | 319 | 6.1 | 8.7 | 0.02 | 0.52 | 0.18 | 93 | 1003.0 |
| 20260509050006 | 59 | 306 | 6.1 | 12.2 | 0.03 | 0.53 | 0.18 | 92 | 1002.8 |
| 20260509045007 | 60 | 267 | 7.0 | 13.9 | 0.02 | 0.52 | 0.16 | 92 | 1002.8 |
| 20260509044006 | 60 | 341 | 8.7 | 11.3 | 0.02 | 0.51 | 0.16 | 91 | 1003.0 |
| 20260509043507 | 60 | 338 | 7.8 | 8.7 | 0.02 | 0.51 | 0.16 | 91 | 1002.8 |
| 20260509043006 | 60 | 336 | 5.2 | 7.0 | 0.02 | 0.51 | 0.15 | 91 | 1002.9 |
| 20260509040505 | 60 | 309 | 4.3 | 7.8 | 0.06 | 0.51 | 0.15 | 91 | 1003.3 |
| 20260509035507 | 61 | 264 | 7.0 | 12.2 | 0.05 | 0.50 | 0.15 | 90 | 1003.4 |
| 20260509035005 | 61 | 277 | 5.2 | 12.2 | 0.04 | 0.50 | 0.14 | 90 | 1003.2 |
| 20260509034505 | 61 | 267 | 5.2 | 8.7 | 0.04 | 0.49 | 0.14 | 89 | 1003.3 |
| 20260509033505 | 62 | 291 | 5.2 | 18.2 | 0.04 | 0.49 | 0.13 | 87 | 1003.6 |
| 20260509032507 | 63 | 308 | 17.4 | 20.0 | 0.00 | 0.46 | 0.10 | 84 | 1003.6 |
| 20260509031007 | 64 | 313 | 17.4 | 20.0 | 0.00 | 0.45 | 0.10 | 83 | 1003.6 |
| 20260509030005 | 65 | 309 | 10.4 | 15.6 | 0.00 | 0.45 | 0.10 | 83 | 1003.6 |
| 20260509025506 | 66 | 301 | 9.6 | 14.8 | 0.00 | 0.45 | 0.10 | 84 | 1003.5 |
| 20260509025007 | 65 | 306 | 10.4 | 17.4 | 0.00 | 0.45 | 0.10 | 84 | 1003.4 |
| 20260509024505 | 65 | 314 | 11.3 | 19.1 | 0.00 | 0.45 | 0.10 | 82 | 1003.6 |
| 20260509024005 | 65 | 318 | 14.8 | 21.7 | 0.00 | 0.45 | 0.10 | 82 | 1003.8 |
| 20260509023506 | 66 | 312 | 13.9 | 20.0 | 0.00 | 0.45 | 0.10 | 81 | 1003.8 |
| 20260509022505 | 66 | 309 | 12.2 | 20.0 | 0.00 | 0.45 | 0.10 | 83 | 1003.6 |
| 20260509015504 | 67 | 307 | 13.9 | 20.0 | 0.00 | 0.45 | 0.10 | 79 | 1003.7 |
| 20260509015006 | 67 | 305 | 13.0 | 19.1 | 0.00 | 0.45 | 0.10 | 80 | 1003.6 |
| 20260509014007 | 67 | 309 | 13.9 | 17.4 | 0.00 | 0.45 | 0.10 | 78 | 1003.7 |
| 20260509013006 | 67 | 311 | 14.8 | 19.1 | 0.00 | 0.45 | 0.10 | 79 | 1003.6 |
| 20260509012505 | 67 | 303 | 12.2 | 20.0 | 0.00 | 0.45 | 0.10 | 78 | 1003.6 |
| 20260509012005 | 67 | 303 | 12.2 | 20.0 | 0.00 | 0.45 | 0.10 | 77 | 1003.6 |
| 20260509011507 | 67 | 306 | 14.8 | 20.0 | 0.00 | 0.45 | 0.10 | 78 | 1003.9 |
| 20260509010006 | 67 | 308 | 10.4 | 19.1 | 0.00 | 0.45 | 0.10 | 79 | 1003.9 |
| 20260509005505 | 67 | 304 | 13.0 | 21.7 | 0.00 | 0.45 | 0.10 | 79 | 1003.8 |
| 20260509004505 | 67 | 306 | 14.8 | 20.9 | 0.00 | 0.45 | 0.10 | 83 | 1004.3 |
| 20260509003505 | 67 | 315 | 16.5 | 19.1 | 0.00 | 0.45 | 0.10 | 85 | 1004.5 |
| 20260509002506 | 67 | 317 | 18.2 | 32.2 | 0.00 | 0.45 | 0.10 | 83 | 1004.5 |
| 20260509002006 | 67 | 304 | 8.7 | 18.2 | 0.00 | 0.45 | 0.10 | 84 | 1004.6 |
| 20260509001005 | 66 | 297 | 8.7 | 17.4 | 0.00 | 0.45 | 0.10 | 86 | 1005.0 |
| 20260509000006 | 66 | 314 | 15.6 | 21.7 | 0.00 | 0.45 | 0.10 | 85 | 1005.1 |
| 20260508235506 | 66 | 318 | 14.8 | 20.9 | 0.00 | 0.45 | 0.10 | 88 | 1005.4 |
| 20260508233506 | 64 | 310 | 13.0 | 18.2 | 0.04 | 0.45 | 0.10 | 92 | 1005.6 |
| 20260508233005 | 63 | 309 | 11.3 | 15.6 | 0.04 | 0.45 | 0.10 | 92 | 1005.5 |
| 20260508232505 | 63 | 311 | 12.2 | 15.6 | 0.04 | 0.45 | 0.10 | 92 | 1005.6 |
| 20260508232007 | 62 | 315 | 12.2 | 15.6 | 0.04 | 0.45 | 0.10 | 91 | 1005.7 |
| 20260508230505 | 62 | 312 | 7.8 | 13.9 | 0.04 | 0.45 | 0.10 | 89 | 1005.8 |
| 20260508230007 | 64 | 269 | 10.4 | 20.9 | 0.04 | 0.45 | 0.10 | 88 | 1006.0 |
| 20260508225505 | 65 | 308 | 11.3 | 22.6 | 0.04 | 0.45 | 0.10 | 89 | 1006.0 |
| 20260508224505 | 65 | 306 | 11.3 | 17.4 | 0.01 | 0.43 | 0.07 | 88 | 1005.9 |
| 20260508222007 | 65 | 318 | 21.7 | 25.2 | 0.00 | 0.42 | 0.06 | 86 | 1005.9 |
| 20260508221005 | 65 | 306 | 14.8 | 20.9 | 0.00 | 0.42 | 0.06 | 87 | 1005.9 |
| 20260508215505 | 65 | 313 | 14.8 | 20.0 | 0.00 | 0.42 | 0.06 | 87 | 1006.2 |
| 20260508215005 | 64 | 310 | 15.6 | 19.1 | 0.00 | 0.42 | 0.06 | 87 | 1005.9 |
| 20260508214006 | 64 | 310 | 16.5 | 21.7 | 0.00 | 0.42 | 0.06 | 88 | 1005.9 |
| 20260508213504 | 64 | 309 | 14.8 | 20.0 | 0.00 | 0.42 | 0.06 | 89 | 1005.8 |
| 20260508201505 | 61 | 322 | 15.6 | 20.9 | 0.00 | 0.42 | 0.06 | 97 | 1005.7 |
| 20260508201006 | 61 | 316 | 12.2 | 15.6 | 0.00 | 0.42 | 0.06 | 97 | 1005.7 |
| 20260508200004 | 61 | 321 | 12.2 | 15.6 | 0.00 | 0.42 | 0.06 | 97 | 1005.6 |
| 20260508195506 | 61 | 311 | 13.9 | 17.4 | 0.00 | 0.42 | 0.06 | 97 | 1005.6 |
| 20260508195005 | 60 | 320 | 15.6 | 18.2 | 0.00 | 0.42 | 0.06 | 97 | 1005.5 |
| 20260508193004 | 60 | 315 | 13.9 | 19.1 | 0.00 | 0.42 | 0.06 | 97 | 1005.4 |
| 20260508192505 | 60 | 319 | 13.0 | 17.4 | 0.00 | 0.42 | 0.06 | 97 | 1005.5 |
| 20260508190504 | 59 | 319 | 14.8 | 19.1 | 0.00 | 0.42 | 0.06 | 97 | 1005.5 |
| 20260508185505 | 59 | 318 | 13.0 | 15.6 | 0.00 | 0.42 | 0.06 | 97 | 1005.2 |
| 20260508185004 | 59 | 314 | 13.0 | 18.2 | 0.04 | 0.42 | 0.06 | 96 | 1005.1 |
| 20260508183005 | 59 | 319 | 12.2 | 15.6 | 0.04 | 0.42 | 0.06 | 96 | 1005.3 |
| 20260508181504 | 60 | 318 | 12.2 | 17.4 | 0.04 | 0.42 | 0.06 | 96 | 1005.3 |
| 20260508181005 | 60 | 317 | 13.0 | 20.9 | 0.04 | 0.42 | 0.06 | 96 | 1005.4 |
| 20260508180506 | 60 | 320 | 13.9 | 20.0 | 0.04 | 0.42 | 0.06 | 95 | 1005.5 |
| 20260508180005 | 60 | 319 | 15.6 | 21.7 | 0.04 | 0.42 | 0.06 | 95 | 1005.4 |
| 20260508175504 | 61 | 302 | 11.3 | 22.6 | 0.04 | 0.41 | 0.06 | 96 | 1005.3 |
| 20260508174505 | 61 | 311 | 13.9 | 17.4 | 0.00 | 0.38 | 0.02 | 95 | 1005.4 |
| 20260508174004 | 61 | 315 | 13.9 | 19.1 | 0.00 | 0.38 | 0.02 | 95 | 1005.1 |
| 20260508173506 | 60 | 311 | 13.9 | 19.1 | 0.00 | 0.38 | 0.02 | 96 | 1005.1 |
| 20260508173005 | 61 | 313 | 14.8 | 21.7 | 0.00 | 0.38 | 0.02 | 96 | 1005.1 |
| 20260508172505 | 61 | 323 | 13.9 | 18.2 | 0.00 | 0.38 | 0.02 | 96 | 1005.1 |
| 20260508170504 | 61 | 314 | 13.9 | 19.1 | 0.00 | 0.38 | 0.02 | 96 | 1005.0 |
| 20260508170007 | 61 | 311 | 14.8 | 22.6 | 0.00 | 0.38 | 0.02 | 96 | 1005.2 |
| 20260508165507 | 61 | 320 | 15.6 | 22.6 | 0.00 | 0.38 | 0.02 | 96 | 1005.1 |
| 20260508163506 | 61 | 313 | 18.2 | 24.3 | 0.00 | 0.38 | 0.02 | 96 | 1004.9 |
| 20260508163007 | 61 | 318 | 17.4 | 25.2 | 0.00 | 0.38 | 0.02 | 96 | 1005.2 |
| 20260508162007 | 61 | 319 | 20.9 | 27.8 | 0.00 | 0.38 | 0.02 | 96 | 1005.0 |
| 20260508161007 | 61 | 320 | 20.9 | 26.9 | 0.00 | 0.38 | 0.02 | 97 | 1005.0 |
| 20260508160008 | 61 | 318 | 20.9 | 26.1 | 0.00 | 0.38 | 0.02 | 97 | 1005.0 |
| 20260508154507 | 61 | 323 | 17.4 | 25.2 | 0.00 | 0.38 | 0.02 | 97 | 1005.1 |
| 20260508153006 | 61 | 315 | 17.4 | 22.6 | 0.00 | 0.38 | 0.02 | 96 | 1005.2 |
| 20260508152508 | 61 | 321 | 14.8 | 20.9 | 0.00 | 0.38 | 0.02 | 96 | 1005.1 |
| 20260508151008 | 60 | 324 | 16.5 | 21.7 | 0.00 | 0.38 | 0.02 | 96 | 1005.5 |
| 20260508145507 | 60 | 322 | 17.4 | 20.9 | 0.00 | 0.38 | 0.02 | 96 | 1005.5 |
| 20260508145007 | 60 | 320 | 18.2 | 24.3 | 0.00 | 0.38 | 0.02 | 96 | 1005.6 |
| 20260508144507 | 60 | 329 | 18.2 | 25.2 | 0.00 | 0.38 | 0.02 | 96 | 1005.5 |
| 20260508143006 | 60 | 318 | 18.2 | 21.7 | 0.00 | 0.38 | 0.02 | 95 | 1005.8 |
| 20260508142507 | 60 | 323 | 20.0 | 26.9 | 0.00 | 0.38 | 0.02 | 95 | 1005.8 |
| 20260508141507 | 60 | 320 | 17.4 | 22.6 | 0.00 | 0.38 | 0.02 | 95 | 1006.0 |
| 20260508140508 | 60 | 324 | 21.7 | 28.7 | 0.00 | 0.38 | 0.02 | 95 | 1006.0 |
| 20260508134006 | 60 | 323 | 15.6 | 22.6 | 0.00 | 0.38 | 0.02 | 95 | 1006.1 |
| 20260508133508 | 59 | 317 | 15.6 | 19.1 | 0.00 | 0.38 | 0.02 | 96 | 1006.2 |
| 20260508132506 | 59 | 324 | 13.9 | 21.7 | 0.00 | 0.38 | 0.02 | 96 | 1006.1 |
| 20260508131506 | 59 | 322 | 15.6 | 21.7 | 0.00 | 0.38 | 0.02 | 97 | 1006.0 |
| 20260508131006 | 58 | 319 | 18.2 | 22.6 | 0.02 | 0.38 | 0.02 | 97 | 1006.1 |
| 20260508130508 | 58 | 320 | 13.9 | 20.9 | 0.02 | 0.38 | 0.02 | 98 | 1006.1 |
| 20260508130007 | 58 | 320 | 16.5 | 24.3 | 0.02 | 0.38 | 0.02 | 98 | 1006.2 |
| 20260508125008 | 58 | 318 | 13.9 | 19.1 | 0.04 | 0.38 | 0.02 | 98 | 1006.0 |
| 20260508123508 | 58 | 320 | 13.0 | 18.2 | 0.04 | 0.38 | 0.02 | 98 | 1006.2 |
| 20260508122506 | 58 | 317 | 13.0 | 17.4 | 0.04 | 0.37 | 0.02 | 98 | 1006.5 |
| 20260508122008 | 58 | 311 | 11.3 | 18.2 | 0.05 | 0.37 | 0.02 | 98 | 1006.5 |
| 20260508121508 | 58 | 310 | 13.0 | 19.1 | 0.06 | 0.37 | 0.02 | 98 | 1006.6 |